Durant, OK

12:08 AM CST on December 11, 2019 (GMT -0600)
Eaker

Weather History for KDUA - October, 2019

Change the Weather History Date:

Sunday, October 13, 2019

  Actual Average (WUND) Record (WUND)
Temperature  
Mean Temperature 62 °F -  
Max Temperature 80 °F - - (-1)
Min Temperature 44 °F - - (-1)
Degree Days  
Heating Degree Days 3    
Growing Degree Days 12 (Base 50)    
Moisture  
Dew Point 41 °F    
Average Humidity 55    
Maximum Humidity 81    
Minimum Humidity 23    
Precipitation  
Precipitation 0.00 in - - ()
Sea Level Pressure  
Sea Level Pressure 30.02 in    
Wind  
Wind Speed 3 mph (SSE)    
Max Wind Speed 12 mph    
Max Gust Speed 17 mph    
Visibility 10 miles    
Events      
Averages and records for this station are not official NWS values.
T = Trace of Precipitation, MM = Missing Value Source: NWS Daily Summary

Daily Weather History Graph

Daily Weather History Graph

Search for Another Location

Airport or City:

Astronomy

Oct. 13, 2019 Rise Set
Actual Time 7:28 AM CDT 6:54 PM CDT
Civil Twilight 7:03 AM CDT 7:19 PM CDT
Nautical Twilight 6:34 AM CDT 7:48 PM CDT
Astronomical Twilight 6:05 AM CDT 8:17 PM CDT
Moon 7:14 PM CDT (10/13) 7:07 AM CDT (10/13)
Length of Visible Light 12h 15m
Length of Day
11h 25m
Full, 100% of the Moon is Illuminated
Oct 13
Full
Oct 13
Full
Oct 21
Last Quarter
Oct 27
New
Nov 4
First Quarter

Hourly Weather History & Observations

Time (CDT) Temp. Windchill Dew Point Humidity Pressure Visibility Wind Dir Wind Speed Gust Speed Precip Events Conditions
12:15 AM 46.4 °F - 35.6 °F 66% 30.07 in 10.0 mi Calm Calm - N/A   Clear
12:35 AM 44.6 °F - 35.6 °F 71% 30.05 in 10.0 mi Calm Calm - N/A   Clear
12:55 AM 44.6 °F - 35.6 °F 71% 30.05 in 10.0 mi Calm Calm - N/A   Clear
1:15 AM 44.6 °F - 35.6 °F 71% 30.05 in 10.0 mi Calm Calm - N/A   Clear
1:55 AM 44.6 °F - 35.6 °F 71% 30.05 in 10.0 mi Calm Calm - N/A   Clear
2:36 AM 46.4 °F - 35.6 °F 66% 30.05 in 10.0 mi Calm Calm - N/A   Clear
2:55 AM 46.4 °F 45.2 °F 37.4 °F 71% 30.05 in 10.0 mi SSE 3.5 mph - N/A   Clear
3:36 AM 46.4 °F - 39.2 °F 76% 30.05 in 10.0 mi Calm Calm - N/A   Mostly Cloudy
3:55 AM 48.2 °F - 39.2 °F 71% 30.05 in 10.0 mi Calm Calm - N/A   Scattered Clouds
4:35 AM 46.4 °F - 37.4 °F 71% 30.05 in 10.0 mi Calm Calm - N/A   Clear
5:17 AM 46.4 °F - 37.4 °F 71% 30.05 in 10.0 mi Calm Calm - N/A   Clear
5:57 AM 46.4 °F - 39.2 °F 76% 30.05 in 10.0 mi Calm Calm - N/A   Mostly Cloudy
6:37 AM 46.4 °F - 39.2 °F 76% 30.05 in 10.0 mi Calm Calm - N/A   Scattered Clouds
6:55 AM 44.6 °F - 39.2 °F 81% 30.05 in 10.0 mi Calm Calm - N/A   Mostly Cloudy
7:17 AM 44.6 °F 43.1 °F 39.2 °F 81% 30.05 in 10.0 mi South 3.5 mph - N/A   Mostly Cloudy
7:56 AM 46.4 °F - 39.2 °F 76% 30.05 in 10.0 mi Calm Calm - N/A   Scattered Clouds
8:16 AM 46.4 °F - 41.0 °F 81% 30.05 in 10.0 mi Calm Calm - N/A   Mostly Cloudy
8:57 AM 51.8 °F - 44.6 °F 76% 30.06 in 10.0 mi SSE 4.6 mph - N/A   Mostly Cloudy
9:36 AM 57.2 °F - 46.4 °F 67% 30.07 in 10.0 mi South 5.8 mph - N/A   Scattered Clouds
9:57 AM 60.8 °F - 44.6 °F 55% 30.07 in 10.0 mi South 8.1 mph - N/A   Scattered Clouds
10:35 AM 64.4 °F - 42.8 °F 45% 30.07 in 10.0 mi South 6.9 mph - N/A   Scattered Clouds
11:36 AM 69.8 °F - 37.4 °F 31% 30.05 in 10.0 mi South 11.5 mph - N/A   Overcast
12:17 PM 71.6 °F - 35.6 °F 27% 30.04 in 10.0 mi South 11.5 mph 17.3 mph N/A   Clear
12:55 PM 73.4 °F - 35.6 °F 25% 30.03 in 10.0 mi SW 5.8 mph 9.2 mph N/A   Clear
1:15 PM 75.2 °F - 35.6 °F 24% 30.01 in 10.0 mi South 8.1 mph - N/A   Clear
1:35 PM 75.2 °F - 35.6 °F 24% 30.01 in 10.0 mi SSW 6.9 mph - N/A   Clear
2:18 PM 78.8 °F - 37.4 °F 23% 29.98 in 10.0 mi South 11.5 mph - N/A   Clear
2:36 PM 78.8 °F - 39.2 °F 24% 29.98 in 10.0 mi South 9.2 mph - N/A   Clear
3:36 PM 78.8 °F - 42.8 °F 28% 29.96 in 2.5 mi SW 4.6 mph - N/A   Haze
4:37 PM 80.6 °F - 44.6 °F 28% 29.95 in 10.0 mi South 8.1 mph - N/A   Clear
4:57 PM 80.6 °F - 42.8 °F 26% 29.95 in 10.0 mi South 5.8 mph - N/A   Clear
5:15 PM 78.8 °F - 42.8 °F 28% 29.95 in 10.0 mi South 8.1 mph - N/A   Clear
5:35 PM 78.8 °F - 42.8 °F 28% 29.95 in 10.0 mi South 9.2 mph - N/A   Clear
5:57 PM 78.8 °F - 44.6 °F 30% 29.95 in 10.0 mi SSE 8.1 mph - N/A   Clear
6:58 PM 71.6 °F - 46.4 °F 41% 29.96 in 10.0 mi SE 4.6 mph - N/A   Clear
7:18 PM 68.0 °F - 48.2 °F 49% 29.97 in 10.0 mi SE 4.6 mph - N/A   Clear
7:38 PM 66.2 °F - 48.2 °F 52% 29.98 in 10.0 mi SE 4.6 mph - N/A   Clear
8:17 PM 64.4 °F - 48.2 °F 56% 30.00 in 10.0 mi SE 5.8 mph - N/A   Clear
8:35 PM 62.6 °F - 48.2 °F 59% 30.00 in 10.0 mi SE 5.8 mph - N/A   Clear
9:37 PM 62.6 °F - 48.2 °F 59% 30.02 in 10.0 mi SE 4.6 mph - N/A   Clear
9:55 PM 60.8 °F - 48.2 °F 63% 30.02 in 10.0 mi SE 5.8 mph - N/A   Clear
10:35 PM 59.0 °F - 48.2 °F 67% 30.03 in 10.0 mi ESE 4.6 mph - N/A   Clear
11:37 PM 57.2 °F - 50.0 °F 77% 30.03 in 10.0 mi SE 5.8 mph - N/A   Clear